Dewpoint
-0 3 4 5 6 7 8 8 10 10 9 8 9 9 10 9 9 11 11 10 11 11 10 9 9 5 -6 -4 1 6 5 6
1 3 5 6 7 8 8 8 9 9 8 8 9 9 9 9 9 9 9 11 11 11 11 10 9 -3 0 2 -0 2 5 6
2 4 6 7 6 8 8 8 8 8 9 7 9 8 9 9 8 9 9 10 11 11 10 9 9 -4 7 5 5 6 6 6
2 6 6 7 7 7 8 8 7 9 8 9 9 9 8 8 8 8 9 9 10 11 10 10 6 1 6 6 6 6 6 6
0 6 7 7 7 8 8 8 8 8 7 9 9 9 8 8 8 9 9 9 9 10 10 8 6 4 7 6 6 5 5 5
2 6 5 6 7 8 8 8 8 7 6 9 9 9 8 8 8 8 8 9 8 9 9 8 6 6 7 7 5 4 5 4
-2 3 6 7 8 8 8 9 8 6 4 9 9 9 8 8 8 8 9 9 9 8 8 8 6 8 6 6 5 4 4 3
6 8 7 7 8 8 9 9 7 5 3 8 9 9 8 7 8 8 8 9 9 8 8 9 8 8 8 7 5 4 3 3
7 6 6 7 8 8 9 8 7 5 2 7 9 9 8 8 8 7 8 7 8 8 8 8 8 8 8 7 5 2 1 1
8 7 7 7 8 8 8 8 7 5 1 6 8 8 7 8 8 7 8 8 7 7 7 6 6 5 5 5 4 2 1 1
8 8 7 7 7 8 8 8 6 4 1 5 8 8 8 8 8 8 7 7 7 7 7 5 5 4 3 3 3 3 2 3
8 8 7 7 8 8 8 9 8 6 3 3 7 9 8 8 8 8 7 7 7 6 5 3 4 4 3 3 3 3 2 4
7 8 8 8 8 8 8 8 8 7 5 1 4 8 8 8 8 8 7 7 7 5 5 4 4 4 5 4 3 2 2 3
7 9 9 9 9 8 8 8 8 8 7 3 3 7 8 8 8 8 8 8 7 6 5 4 4 3 3 3 2 2 3 3
4 8 9 9 9 9 9 9 9 8 8 7 4 5 5 7 8 8 8 8 8 7 7 6 5 4 3 2 2 2 2 3
6 6 5 6 8 10 10 9 9 9 9 8 8 6 5 6 6 8 8 8 8 8 8 7 7 7 5 3 3 3 3 3
6 5 5 6 5 6 8 9 10 10 9 9 8 8 8 7 8 8 7 7 8 8 8 8 8 8 8 7 6 6 5 2
5 4 3 3 3 4 6 7 7 8 10 9 9 9 9 9 9 9 9 8 8 7 7 8 8 7 8 8 8 8 7 7
5 5 3 3 4 4 6 7 7 9 10 10 10 9 9 9 9 9 9 9 9 9 8 8 8 7 7 7 8 9 8 7
Wind_Speed
32 31 30 28 25 21 16 16 18 17 17 17 21 22 26 26 29 25 34 34 37 41 36 39 41 39 41 40 48 39 40 30
36 33 34 31 27 25 22 20 20 20 19 19 20 21 19 21 25 32 33 41 47 51 45 48 48 43 45 43 44 41 33 30
36 39 38 35 31 27 24 21 20 19 19 17 18 15 16 15 17 30 34 35 38 41 40 36 47 48 42 41 39 38 34 36
36 45 43 39 34 31 27 22 20 20 17 19 17 16 12 12 11 18 27 33 33 45 43 50 52 50 45 46 40 38 36 36
39 48 47 42 37 32 27 22 21 19 17 21 18 18 15 15 11 14 23 31 38 40 43 54 55 52 44 47 41 41 40 38
41 53 49 44 39 34 28 24 21 20 19 21 20 18 14 18 17 17 22 28 34 40 50 53 47 45 40 45 43 41 41 38
44 52 51 47 40 34 29 26 24 22 21 24 21 21 19 23 24 20 24 28 30 35 35 36 44 43 42 41 40 40 37 37
41 46 51 47 42 36 31 28 27 23 22 25 24 23 22 23 27 26 29 33 35 37 37 38 44 44 45 45 41 40 39 40
46 51 54 50 44 38 34 30 28 25 23 24 24 24 25 27 28 28 31 31 34 37 38 37 35 38 41 41 42 40 40 37
44 47 51 48 42 40 34 30 28 25 24 23 25 23 22 27 27 26 29 36 38 38 35 32 35 37 38 43 42 41 40 38
40 45 47 43 43 37 33 28 26 24 25 25 26 28 26 25 25 29 31 34 41 38 35 36 39 38 37 40 42 39 38 36
35 39 43 43 39 37 33 30 27 25 25 27 28 30 30 29 29 31 30 32 38 41 39 39 42 44 44 44 43 41 40 39
28 34 38 38 36 35 31 28 28 26 25 28 29 29 32 32 32 31 31 33 34 38 42 41 43 43 44 46 48 48 47 46
16 20 26 30 32 32 30 29 28 25 25 28 28 30 33 36 35 32 34 35 36 38 44 46 44 45 47 48 48 48 50 49
39 18 8 6 13 21 26 28 30 27 25 27 29 31 32 33 36 37 34 35 36 40 42 46 48 48 49 49 51 53 55 55
33 31 28 21 9 3 13 23 30 32 30 28 29 29 31 31 32 36 39 38 38 38 39 43 43 46 50 52 53 54 55 57
32 27 24 21 19 15 10 5 19 27 36 36 33 31 33 34 34 34 35 37 40 40 42 42 44 46 47 50 52 54 56 58
29 27 23 20 17 12 10 5 4 9 22 35 32 32 36 38 39 38 39 39 40 43 44 44 46 46 48 48 49 50 52 55
25 21 19 19 17 15 10 7 8 8 7 20 28 31 31 36 37 41 44 43 44 45 45 45 46 48 48 46 46 47 49 52
Wind_Direction
215 207 208 213 216 219 220 219 216 218 217 225 229 234 234 226 219 215 215 213 212 205 210 200 194 186 181 178 175 174 174 173
208 203 204 205 208 212 213 216 215 216 216 221 227 236 224 216 219 214 213 209 209 205 212 199 191 185 180 178 178 184 180 176
203 195 200 204 212 211 212 217 224 226 230 227 217 222 219 221 217 210 211 215 216 216 211 208 190 181 180 179 180 179 183 184
200 192 198 202 210 214 216 222 223 224 229 204 206 214 222 221 217 192 206 214 220 222 215 208 181 181 181 183 186 187 180 184
210 194 195 204 211 211 215 217 216 222 232 202 207 211 206 215 186 204 212 213 217 215 214 188 182 186 183 185 188 186 184 183
205 198 202 205 208 209 210 210 215 222 224 204 203 205 206 205 191 197 202 191 183 184 184 174 179 185 188 186 188 190 190 191
213 204 197 201 203 206 207 210 214 219 216 200 205 198 197 200 193 193 196 198 189 174 177 186 188 190 186 190 189 192 196 201
186 186 195 200 200 203 206 210 212 216 213 203 204 201 200 202 200 198 192 192 189 188 188 187 189 191 196 194 193 199 204 208
187 194 197 200 199 203 206 208 211 216 215 205 205 205 205 202 206 212 207 204 200 196 194 199 213 209 204 196 195 197 213 216
185 191 197 197 201 206 208 209 210 216 217 207 204 208 203 206 207 214 221 214 203 201 214 222 207 206 207 207 209 215 217 222
184 192 196 200 206 206 209 211 215 220 217 212 210 210 209 210 212 213 219 220 217 222 226 213 203 207 210 212 216 221 227 233
185 193 196 202 204 207 208 208 212 220 223 218 213 214 217 214 216 215 217 222 224 227 221 216 213 216 215 220 224 230 232 231
197 195 196 202 207 209 209 211 217 222 226 224 219 218 219 222 222 219 219 223 226 227 222 223 223 221 220 223 228 231 232 234
136 174 191 206 212 214 214 217 222 224 223 225 224 222 222 224 227 225 223 224 228 228 229 228 231 232 230 228 229 232 237 238
74 100 124 179 227 231 229 229 230 230 227 228 230 228 229 229 229 230 230 230 230 231 233 236 237 238 238 236 236 238 240 244
74 74 76 82 105 194 270 257 246 242 238 236 239 238 236 237 237 235 236 236 237 238 240 240 241 243 242 240 241 243 244 246
84 72 60 57 61 63 51 324 255 248 247 247 246 245 241 240 240 242 242 243 242 242 243 243 245 248 247 246 246 247 249 249
71 65 62 58 52 50 63 83 350 269 256 249 255 255 254 250 247 243 245 246 245 245 247 247 248 249 250 252 253 255 253 253
80 72 60 54 54 53 49 45 50 62 205 238 243 249 261 264 257 254 250 247 247 248 249 249 252 255 255 255 254 253 254 255
Height
1428 1431 1436 1439 1442 1446 1448 1450 1453 1456 1459 1462 1464 1465 1467 1470 1472 1473 1475 1479 1482 1487 1492 1496 1501 1505 1512 1517 1523 1530 1533 1538
1422 1425 1432 1435 1439 1441 1443 1445 1448 1451 1454 1456 1459 1460 1462 1465 1466 1469 1473 1471 1475 1478 1486 1487 1494 1502 1508 1514 1522 1528 1533 1537
1417 1420 1425 1428 1432 1436 1439 1442 1444 1447 1451 1453 1455 1457 1458 1460 1461 1464 1467 1472 1474 1478 1482 1490 1492 1499 1507 1513 1520 1524 1530 1534
1409 1414 1418 1423 1428 1431 1435 1438 1441 1444 1447 1450 1453 1455 1457 1457 1457 1459 1463 1467 1471 1472 1475 1479 1487 1496 1501 1510 1515 1522 1527 1532
1401 1407 1412 1417 1422 1427 1431 1435 1437 1440 1442 1445 1450 1452 1454 1454 1456 1457 1460 1463 1467 1470 1471 1474 1483 1495 1499 1508 1513 1519 1525 1528
1395 1398 1403 1410 1417 1421 1427 1431 1434 1436 1438 1442 1446 1450 1454 1455 1456 1458 1462 1464 1466 1465 1467 1473 1486 1495 1501 1507 1512 1517 1522 1526
1383 1390 1400 1406 1414 1419 1423 1427 1430 1432 1434 1438 1442 1447 1450 1454 1456 1459 1462 1465 1468 1472 1476 1482 1489 1495 1500 1506 1511 1517 1520 1523
1380 1387 1394 1402 1408 1414 1419 1423 1426 1428 1430 1435 1439 1444 1448 1452 1455 1458 1461 1465 1469 1473 1477 1482 1487 1492 1496 1501 1507 1514 1517 1521
1374 1378 1386 1394 1402 1409 1414 1418 1422 1424 1426 1430 1436 1440 1445 1450 1454 1457 1461 1465 1468 1473 1477 1483 1487 1491 1495 1499 1505 1509 1513 1517
1370 1376 1382 1390 1398 1403 1408 1414 1417 1421 1424 1427 1432 1438 1441 1445 1450 1455 1458 1462 1466 1471 1475 1479 1484 1489 1493 1497 1501 1505 1509 1513
1367 1372 1379 1388 1393 1400 1406 1411 1414 1417 1421 1424 1429 1434 1440 1443 1447 1449 1452 1457 1462 1466 1470 1475 1480 1485 1489 1493 1497 1502 1505 1508
1366 1372 1379 1384 1392 1397 1403 1408 1412 1414 1417 1421 1424 1429 1434 1439 1442 1445 1448 1453 1457 1460 1466 1470 1475 1479 1483 1487 1490 1494 1498 1501
1368 1373 1378 1384 1389 1395 1400 1405 1408 1411 1414 1417 1420 1424 1429 1433 1436 1440 1445 1448 1452 1456 1461 1464 1468 1472 1477 1481 1483 1486 1489 1492
1370 1378 1385 1387 1391 1394 1398 1401 1404 1408 1411 1413 1416 1418 1422 1426 1430 1435 1439 1443 1446 1450 1454 1457 1461 1465 1469 1473 1475 1478 1480 1483
1378 1383 1390 1395 1397 1400 1403 1405 1406 1407 1408 1410 1413 1415 1417 1420 1425 1428 1432 1435 1439 1442 1446 1450 1454 1458 1460 1463 1466 1470 1471 1474
1387 1392 1395 1395 1397 1400 1402 1403 1405 1406 1408 1409 1409 1412 1414 1415 1417 1421 1426 1428 1431 1435 1439 1442 1446 1448 1450 1453 1457 1459 1462 1465
1393 1397 1398 1400 1400 1402 1402 1399 1403 1405 1403 1404 1408 1408 1410 1411 1413 1414 1417 1420 1423 1427 1429 1432 1435 1435 1438 1443 1447 1448 1451 1453
1394 1397 1401 1402 1401 1401 1401 1400 1399 1399 1401 1403 1405 1407 1409 1412 1414 1414 1412 1413 1416 1416 1418 1422 1423 1426 1428 1432 1436 1440 1441 1441
1398 1403 1403 1401 1401 1401 1401 1399 1398 1397 1398 1400 1402 1403 1402 1402 1405 1405 1407 1407 1409 1410 1409 1411 1414 1414 1418 1421 1425 1428 1429 1429